Mobridge, SD

9:22 AM CST on January 16, 2017 (GMT -0600)
Mobridge Municipal

Weather History for KMBG - October, 2012

Change the Weather History Date:

Tuesday, October 9, 2012

  Actual Average Record
Temperature  
Mean Temperature 37 °F 50 °F  
Max Temperature 47 °F 63 °F 87 °F (1955)
Min Temperature 27 °F 37 °F 21 °F (1956)
Degree Days  
Heating Degree Days 28 15  
Month to date heating degree days 175 121  
Since 1 July heating degree days 327 341  
Cooling Degree Days 0 0  
Month to date cooling degree days 0 0  
Year to date cooling degree days 866 641  
Moisture  
Dew Point 26 °F    
Average Humidity 58    
Maximum Humidity 75    
Minimum Humidity 41    
Precipitation  
Precipitation 0.00 in 0.04 in 2.01 in (1982)
Month to date precipitation 0.13 0.48  
Year to date precipitation 12.54 15.93  
Snow  
Snow 0.00 in - - ()
Month to date snowfall T  
Since 1 July snowfall T  
Snow Depth 0.00 in    
Sea Level Pressure  
Sea Level Pressure 29.99 in    
Wind  
Wind Speed 15 mph (NW)    
Max Wind Speed 32 mph    
Max Gust Speed 39 mph    
Visibility 10 miles    
Events      
T = Trace of Precipitation, MM = Missing Value Source: NWS Daily Summary

Daily Weather History Graph

Daily Weather History Graph

Search for Another Location

Airport or City:

Trip Planner

Search our weather history database for the weather conditions in past years. The results will help you decide how hot, cold, wet, or windy it might be!

Date:

Astronomy

Oct. 09, 2012 Rise Set
Actual Time 7:50 AM CDT 7:05 PM CDT
Civil Twilight 7:21 AM CDT 7:35 PM CDT
Nautical Twilight 6:46 AM CDT 8:09 PM CDT
Astronomical Twilight 6:12 AM CDT 8:44 PM CDT
Moon 1:11 AM CDT (10/9) 3:50 PM CDT (10/9)
Length of Visible Light 12h 14m
Length of Day
11h 15m
Last Quarter, 36% of the Moon is Illuminated
Oct 9
Last Quarter
Oct 15
New
Oct 21
First Quarter
Oct 29
Full
Nov 6
Last Quarter

Hourly Weather History & Observations

Time (CDT) Temp. Windchill Dew Point Humidity Pressure Visibility Wind Dir Wind Speed Gust Speed Precip Events Conditions
12:52 AM 46.9 °F - 32.0 °F 56% 29.81 in 10.0 mi NW 16.1 mph 25.3 mph N/A   Clear
1:52 AM 44.1 °F 36.8 °F 30.0 °F 58% 29.83 in 10.0 mi NW 16.1 mph - N/A   Clear
2:52 AM 42.1 °F 35.2 °F 30.0 °F 62% 29.85 in 10.0 mi NW 12.7 mph - N/A   Clear
3:52 AM 42.1 °F 32.3 °F 24.1 °F 49% 29.86 in 10.0 mi NW 24.2 mph 34.5 mph N/A   Partly Cloudy
4:52 AM 41.0 °F 32.5 °F 25.0 °F 53% 29.88 in 10.0 mi NW 17.3 mph 26.5 mph N/A   Clear
5:52 AM 39.9 °F 30.5 °F 26.1 °F 58% 29.89 in 10.0 mi WNW 19.6 mph 25.3 mph N/A   Clear
6:52 AM 39.0 °F 29.3 °F 26.1 °F 60% 29.91 in 10.0 mi NW 19.6 mph 31.1 mph N/A   Clear
7:52 AM 37.0 °F 26.2 °F 26.1 °F 65% 29.93 in 10.0 mi NW 21.9 mph 29.9 mph N/A   Clear
8:52 AM 37.9 °F 27.1 °F 28.0 °F 68% 29.96 in 10.0 mi NW 23.0 mph 31.1 mph N/A   Clear
9:19 AM 39.2 °F 29.6 °F 26.6 °F 61% 29.94 in 10.0 mi NW 19.6 mph 28.8 mph N/A   Mostly Cloudy
9:36 AM 39.2 °F 28.7 °F 26.6 °F 61% 29.94 in 10.0 mi NW 23.0 mph 27.6 mph N/A   Overcast
9:52 AM 39.9 °F 29.5 °F 27.0 °F 60% 29.97 in 10.0 mi NW 24.2 mph 33.4 mph N/A   Overcast
10:52 AM 39.9 °F 30.0 °F 28.0 °F 63% 30.00 in 10.0 mi NW 21.9 mph 29.9 mph N/A   Overcast
11:52 AM 42.1 °F 33.9 °F 27.0 °F 55% 30.02 in 10.0 mi NNW 17.3 mph 27.6 mph N/A   Overcast
12:52 PM 43.0 °F 34.8 °F 27.0 °F 53% 30.03 in 10.0 mi NW 18.4 mph 25.3 mph N/A   Overcast
1:52 PM 43.0 °F 35.1 °F 26.1 °F 51% 30.04 in 10.0 mi NW 17.3 mph - N/A   Overcast
2:52 PM 45.0 °F 38.5 °F 26.1 °F 48% 30.04 in 10.0 mi NNW 13.8 mph - N/A   Overcast
3:52 PM 46.0 °F 39.6 °F 24.1 °F 42% 30.04 in 10.0 mi WNW 15.0 mph 20.7 mph N/A   Overcast
4:52 PM 45.0 °F 38.5 °F 23.0 °F 42% 30.04 in 10.0 mi NW 13.8 mph 27.6 mph N/A   Overcast
5:52 PM 44.1 °F 37.1 °F 24.1 °F 45% 30.06 in 10.0 mi NW 15.0 mph 23.0 mph N/A   Overcast
6:52 PM 44.1 °F 36.5 °F 23.0 °F 43% 30.06 in 10.0 mi WNW 17.3 mph 23.0 mph N/A   Overcast
7:52 PM 37.9 °F 32.7 °F 24.1 °F 57% 30.09 in 10.0 mi NNW 6.9 mph - N/A   Clear
8:52 PM 35.1 °F 29.3 °F 21.9 °F 59% 30.10 in 10.0 mi NW 6.9 mph - N/A   Clear
9:52 PM 30.0 °F 25.2 °F 21.9 °F 72% 30.12 in 10.0 mi NNW 4.6 mph - N/A   Clear
10:52 PM 28.0 °F 22.8 °F 21.0 °F 75% 30.12 in 10.0 mi WNW 4.6 mph - N/A   Clear
11:52 PM 30.0 °F 26.5 °F 23.0 °F 75% 30.12 in 10.0 mi West 3.5 mph - N/A   Clear